[[{"header":{"parameterUnit":"m.s-1","parameterCategory":1,"la1":30.2992,"la2":30.254,"lo1":-89.0895,"lo2":-89.0443,"dy":0.0025,"dx":0.0025,"nx":19,"ny":19,"refTime":"2026-03-16T03:00:00:Z","depth":0,"parameterNumber":2,"parameterNumberName":"U-component_of_WINDS"},"data":[0,0,0,4.4408,4.4411,4.454,4.4541,4.4711,4.4713,0,0,0,0,0,0,0,0,0,0,0,4.4371,4.4372,4.4408,4.4411,4.454,4.4541,4.4711,4.4713,0,0,0,0,0,0,0,0,0,0,0,4.4371,4.4372,4.4374,4.4411,4.454,4.4541,4.4711,4.4611,0,0,0,0,0,0,0,0,0,0,4.4485,4.4452,4.4372,4.4374,4.4412,4.454,4.4541,4.4607,4.4618,4.4654,0,4.4686,0,4.4702,4.4724,4.4725,0,0,0,4.441,4.4443,4.4477,4.4374,4.4413,4.454,4.4482,4.4613,4.4625,4.4669,4.4689,4.4695,4.4705,4.4726,4.4726,4.4941,4.4942,0,0,4.4403,4.4395,4.4468,4.4485,4.4464,4.4477,4.4486,4.462,4.4642,4.4689,4.4699,4.4708,4.4727,4.4728,4.494,4.4942,0,0,0,4.4383,4.439,4.4421,4.4478,4.4501,4.4481,4.4491,4.4636,4.4646,4.4701,4.471,4.4728,4.473,4.4939,4.4941,4.4987,0,0,0,4.4379,4.4379,4.4418,4.4414,4.4498,4.457,4.4503,4.4637,4.4652,4.4709,4.4728,4.4731,4.4938,4.494,4.4983,4.5009,0,0,0,4.4362,4.4377,4.4396,4.4414,4.4469,4.4567,4.4586,4.464,4.4658,4.4725,4.4732,4.4937,4.494,4.4979,4.5004,4.5065,0,0,0,4.4343,4.4434,4.4397,4.4503,4.4468,4.4595,4.4585,4.468,4.4743,4.4729,4.4938,4.4941,4.4978,4.5,4.5061,4.5115,4.5136,0,0,4.4454,4.4447,4.451,4.4481,4.4612,4.4575,4.4714,4.4779,4.4792,4.4891,4.4897,4.4984,4.5003,4.5064,4.526,4.5277,0,0,0,4.4543,4.4589,4.4625,4.4685,4.4737,4.4784,4.4829,4.4853,4.4938,4.4841,4.5023,4.5034,4.507,4.5096,4.5111,4.5143,4.4952,4.4952,4.4952,4.469,4.4703,4.4809,4.4838,4.4896,4.4942,4.4992,4.5033,4.5027,4.507,4.51,4.5217,4.5247,4.5258,4.5291,4.5129,4.5129,4.5129,4.5129,4.4855,4.4922,4.4915,4.5015,4.5028,4.5113,4.5162,4.5156,4.5238,4.5195,4.5227,4.5179,4.5276,4.5306,4.5133,4.5132,4.5132,4.5132,4.5131,4.4952,4.4987,4.5015,4.5105,4.5174,4.5201,4.528,4.529,4.5299,4.5331,4.5364,4.5364,4.5365,4.5346,4.5347,4.5347,4.5348,4.5348,4.5348,4.5042,4.5073,4.5139,4.5204,4.5245,4.5301,4.535,4.5391,4.5439,4.544,4.5441,4.5432,4.5283,4.5246,4.5354,4.5353,4.5353,4.5352,4.5351,4.5205,4.517,4.5271,4.5313,4.5391,4.546,4.5472,4.5556,4.5591,4.5631,4.5617,4.5505,4.5498,4.5487,4.5456,4.5613,4.5613,4.5613,4.5613,4.5288,4.5286,4.5393,4.5459,4.5525,4.5546,4.5663,4.5704,4.574,4.5763,4.5742,4.5702,4.569,4.5691,4.5675,4.5647,4.5848,4.5849,4.5849,4.5389,4.5395,4.5491,4.5526,4.5589,4.5643,4.5753,4.5831,4.5865,4.5859,4.5782,4.5773,4.5708,4.5686,4.5676,4.5651,4.5599,0,0]},{"header":{"parameterUnit":"m.s-1","parameterCategory":1,"la1":30.2992,"la2":30.254,"lo1":-89.0895,"lo2":-89.0443,"dy":0.0025,"dx":0.0025,"nx":19,"ny":19,"refTime":"2026-03-16T03:00:00:Z","depth":0,"parameterNumber":3,"parameterNumberName":"V-component_of_WINDS"},"data":[0,0,0,-7.3341,-7.3348,-7.3646,-7.3647,-7.4023,-7.4026,0,0,0,0,0,0,0,0,0,0,0,-7.325,-7.3252,-7.3341,-7.3348,-7.3646,-7.3647,-7.4023,-7.4026,0,0,0,0,0,0,0,0,0,0,0,-7.3248,-7.3251,-7.3254,-7.3349,-7.3646,-7.3647,-7.4022,-7.3799,0,0,0,0,0,0,0,0,0,0,-7.351,-7.3422,-7.3251,-7.3254,-7.3351,-7.3645,-7.3647,-7.3788,-7.3813,-7.3886,0,-7.3949,0,-7.3994,-7.4051,-7.4053,0,0,0,-7.3351,-7.3401,-7.3485,-7.3255,-7.3354,-7.3645,-7.3512,-7.3802,-7.383,-7.3918,-7.3955,-7.3969,-7.4,-7.4054,-7.4055,-7.447,-7.4472,0,0,-7.3334,-7.3301,-7.3466,-7.3503,-7.3456,-7.3503,-7.3522,-7.3819,-7.3857,-7.3956,-7.3978,-7.4006,-7.4056,-7.4059,-7.4468,-7.447,0,0,0,-7.3285,-7.3289,-7.3366,-7.3487,-7.3541,-7.3511,-7.3533,-7.3843,-7.3871,-7.3982,-7.4011,-7.4058,-7.4063,-7.4466,-7.4469,-7.4528,0,0,0,-7.3276,-7.3261,-7.3359,-7.3341,-7.3536,-7.3696,-7.3551,-7.385,-7.3885,-7.4009,-7.4058,-7.4066,-7.4464,-7.4468,-7.4522,-7.4562,0,0,0,-7.3231,-7.3256,-7.3298,-7.3339,-7.3466,-7.3692,-7.3737,-7.3859,-7.3903,-7.4053,-7.4067,-7.4463,-7.4467,-7.4517,-7.4553,-7.4664,0,0,0,-7.3174,-7.3344,-7.3298,-7.3499,-7.3463,-7.3726,-7.3735,-7.3932,-7.4068,-7.406,-7.4465,-7.4469,-7.4515,-7.4548,-7.4658,-7.4752,-7.4787,0,0,-7.337,-7.3366,-7.3488,-7.3455,-7.3718,-7.3683,-7.3955,-7.411,-7.4154,-7.4362,-7.4373,-7.4524,-7.4553,-7.4662,-7.4993,-7.5021,0,0,0,-7.3539,-7.3625,-7.3702,-7.383,-7.3953,-7.4063,-7.418,-7.4239,-7.4417,-7.4254,-7.4594,-7.4612,-7.4677,-7.4724,-7.4748,-7.4807,-7.4488,-7.4488,-7.4487,-7.3768,-7.3817,-7.4022,-7.4107,-7.4231,-7.4352,-7.4458,-7.4556,-7.4567,-7.4647,-7.471,-7.4905,-7.4958,-7.4976,-7.5038,-7.4761,-7.4762,-7.4762,-7.4762,-7.4062,-7.4194,-7.4207,-7.441,-7.4461,-7.4632,-7.4756,-7.4758,-7.4926,-7.4861,-7.4921,-7.4847,-7.5005,-7.5062,-7.4767,-7.4766,-7.4766,-7.4765,-7.4765,-7.4219,-7.4291,-7.436,-7.4552,-7.4695,-7.4775,-7.4937,-7.4976,-7.5015,-7.5074,-7.5147,-7.5146,-7.5152,-7.5106,-7.5106,-7.5107,-7.5108,-7.5108,-7.5109,-7.4357,-7.4432,-7.4564,-7.4711,-7.48,-7.4922,-7.5046,-7.5135,-7.5244,-7.526,-7.5261,-7.5267,-7.5011,-7.4947,-7.512,-7.5118,-7.5116,-7.5115,-7.5114,-7.464,-7.4583,-7.4786,-7.4876,-7.5053,-7.5194,-7.5243,-7.5421,-7.55,-7.5579,-7.5572,-7.5376,-7.5375,-7.5356,-7.5304,-7.5559,-7.5559,-7.5559,-7.5559,-7.4775,-7.4779,-7.4997,-7.5138,-7.528,-7.5346,-7.5576,-7.5675,-7.5768,-7.5821,-7.5789,-7.5722,-7.5701,-7.5713,-7.5687,-7.5639,-7.5974,-7.5974,-7.5975,-7.4954,-7.4973,-7.5161,-7.5252,-7.5394,-7.5515,-7.5734,-7.5896,-7.599,-7.5992,-7.5864,-7.5846,-7.5739,-7.5701,-7.5701,-7.5659,-7.5572,0,0]}]]